Time,TemperatureF,DewpointF,PressureIn,WindDirection,WindDirectionDegrees,WindSpeedMPH,WindSpeedGustMPH,Humidity,HourlyPrecipIn,Conditions,Clouds,dailyrainin,SoftwareType,DateUTC
2013-04-13 00:00:00,32.9,28.0,29.77,WSW,248,2.0,3.5,82,0.00,RA,,0.00,WeatherDisplay:10.37,2013-04-13 05:00:00,
2013-04-13 00:05:00,32.9,28.0,29.77,WSW,248,4.3,6.9,82,0.00,RA,,0.00,WeatherDisplay:10.37,2013-04-13 05:05:00,
2013-04-13 00:10:00,32.9,28.0,29.74,West,270,3.3,4.6,82,0.00,CLR,,0.00,WeatherDisplay:10.37,2013-04-13 05:10:00,
2013-04-13 00:15:00,32.9,28.0,29.74,West,270,1.4,5.9,82,0.00,CLR,,0.00,WeatherDisplay:10.37,2013-04-13 05:15:00,
2013-04-13 00:20:00,32.9,28.0,29.74,West,270,2.0,3.5,82,0.00,CLR,,0.00,WeatherDisplay:10.37,2013-04-13 05:20:00,
2013-04-13 00:25:00,32.9,28.0,29.74,WNW,292,2.6,5.8,82,0.00,CLR,,0.00,WeatherDisplay:10.37,2013-04-13 05:25:00,
2013-04-13 00:30:00,32.9,28.0,29.74,WSW,248,2.0,3.5,82,0.00,CLR,,0.00,WeatherDisplay:10.37,2013-04-13 05:30:00,
2013-04-13 00:35:00,33.1,28.2,29.74,WSW,248,5.4,5.8,82,0.00,CLR,,0.00,WeatherDisplay:10.37,2013-04-13 05:35:00,
2013-04-13 00:40:00,33.1,28.2,29.74,SW,225,1.6,3.3,82,0.00,CLR,,0.00,WeatherDisplay:10.37,2013-04-13 05:40:00,
2013-04-13 00:45:00,32.9,28.0,29.74,West,270,1.4,2.6,82,0.00,CLR,,0.00,WeatherDisplay:10.37,2013-04-13 05:45:00,
2013-04-13 00:50:00,32.9,28.0,29.74,West,270,4.7,5.8,82,0.00,CLR,,0.00,WeatherDisplay:10.37,2013-04-13 05:50:00,
2013-04-13 00:55:00,32.9,28.0,29.74,WNW,292,2.0,2.3,82,0.00,CLR,,0.00,WeatherDisplay:10.37,2013-04-13 05:55:00,
2013-04-13 01:00:00,32.7,27.8,29.74,NW,315,2.0,2.3,82,0.00,CLR,,0.00,WeatherDisplay:10.37,2013-04-13 06:00:00,
2013-04-13 01:05:00,32.7,28.1,29.74,WNW,292,2.0,3.5,83,0.00,CLR,,0.00,WeatherDisplay:10.37,2013-04-13 06:05:00,
2013-04-13 01:10:00,32.7,28.1,29.74,WSW,248,2.4,4.7,83,0.00,CLR,,0.00,WeatherDisplay:10.37,2013-04-13 06:10:00,
2013-04-13 01:15:00,32.7,28.1,29.74,West,270,2.6,4.6,83,0.00,CLR,,0.00,WeatherDisplay:10.37,2013-04-13 06:15:00,
2013-04-13 01:20:00,32.5,28.0,29.74,WNW,292,1.4,2.3,83,0.00,CLR,,0.00,WeatherDisplay:10.37,2013-04-13 06:20:00,
2013-04-13 01:25:00,32.5,28.2,29.77,WNW,292,2.9,5.8,84,0.00,CLR,,0.00,WeatherDisplay:10.37,2013-04-13 06:25:00,
2013-04-13 01:30:00,32.5,28.2,29.77,WNW,292,3.8,5.8,84,0.00,CLR,,0.00,WeatherDisplay:10.37,2013-04-13 06:30:00,
2013-04-13 01:36:00,32.5,28.2,29.77,West,270,4.7,5.8,84,0.00,CLR,,0.00,WeatherDisplay:10.37,2013-04-13 06:36:00,
2013-04-13 01:41:00,32.5,28.2,29.74,WNW,292,2.9,4.6,84,0.00,CLR,,0.00,WeatherDisplay:10.37,2013-04-13 06:41:00,
2013-04-13 01:46:00,32.5,28.2,29.74,NW,315,1.4,2.9,84,0.00,CLR,,0.00,WeatherDisplay:10.37,2013-04-13 06:46:00,
2013-04-13 01:52:00,32.4,28.1,29.74,West,270,2.2,4.6,84,0.00,CLR,,0.00,WeatherDisplay:10.37,2013-04-13 06:52:00,
2013-04-13 01:57:00,32.2,28.2,29.74,WNW,292,1.4,4.3,85,0.00,CLR,,0.00,WeatherDisplay:10.37,2013-04-13 06:57:00,
2013-04-13 02:02:00,32.2,28.2,29.74,West,270,1.4,3.5,85,0.00,CLR,,0.00,WeatherDisplay:10.37,2013-04-13 07:02:00,
2013-04-13 02:07:00,32.2,28.2,29.74,WNW,292,1.6,5.6,85,0.00,CLR,,0.00,WeatherDisplay:10.37,2013-04-13 07:07:00,
2013-04-13 02:13:00,32.2,28.5,29.74,WNW,292,2.2,5.8,86,0.00,CLR,,0.00,WeatherDisplay:10.37,2013-04-13 07:13:00,
2013-04-13 02:18:00,32.0,28.3,29.74,West,270,2.0,3.5,86,0.00,CLR,,0.00,WeatherDisplay:10.37,2013-04-13 07:18:00,
2013-04-13 02:23:00,32.0,28.6,29.74,WNW,292,2.4,4.6,87,0.00,CLR,,0.00,WeatherDisplay:10.37,2013-04-13 07:23:00,
2013-04-13 02:28:00,32.0,28.6,29.74,West,270,3.3,5.8,87,0.00,CLR,,0.00,WeatherDisplay:10.37,2013-04-13 07:28:00,
2013-04-13 02:33:00,32.0,28.6,29.74,WNW,292,3.3,6.9,87,0.00,CLR,,0.00,WeatherDisplay:10.37,2013-04-13 07:33:00,
2013-04-13 02:38:00,32.0,28.8,29.74,West,270,3.3,3.5,88,0.00,CLR,,0.00,WeatherDisplay:10.37,2013-04-13 07:38:00,
2013-04-13 02:43:00,32.0,28.8,29.74,West,270,4.0,8.1,88,0.00,CLR,,0.00,WeatherDisplay:10.37,2013-04-13 07:43:00,
2013-04-13 02:48:00,31.8,28.7,29.74,West,270,3.1,5.8,88,0.00,CLR,,0.00,WeatherDisplay:10.37,2013-04-13 07:48:00,
2013-04-13 02:53:00,31.8,28.7,29.74,WNW,292,3.3,6.4,88,0.00,CLR,,0.00,WeatherDisplay:10.37,2013-04-13 07:53:00,
2013-04-13 02:59:00,31.8,28.7,29.74,WNW,292,3.6,5.8,88,0.00,CLR,,0.00,WeatherDisplay:10.37,2013-04-13 07:59:00,
2013-04-13 03:05:00,31.8,28.7,29.74,WNW,284,2.0,6.0,88,0.00,CLR,,0.00,WeatherDisplay:10.37,2013-04-13 08:05:00,
2013-04-13 03:10:00,31.8,28.7,29.74,WNW,292,2.0,7.0,88,0.00,CLR,,0.00,WeatherDisplay:10.37,2013-04-13 08:10:00,
2013-04-13 03:15:00,31.8,28.7,29.74,WNW,287,3.0,7.0,88,0.00,CLR,,0.00,WeatherDisplay:10.37,2013-04-13 08:15:00,
2013-04-13 03:20:00,31.8,28.4,29.74,WNW,292,4.9,6.9,87,0.00,CLR,,0.00,WeatherDisplay:10.37,2013-04-13 08:20:00,
2013-04-13 03:25:00,32.0,28.6,29.74,WNW,292,3.6,5.8,87,0.00,CLR,,0.00,WeatherDisplay:10.37,2013-04-13 08:25:00,
2013-04-13 03:31:00,32.0,28.3,29.74,WNW,292,3.6,5.8,86,0.00,CLR,,0.00,WeatherDisplay:10.37,2013-04-13 08:31:00,
2013-04-13 03:37:00,31.8,28.1,29.74,West,270,3.8,6.0,86,0.00,CLR,,0.00,WeatherDisplay:10.37,2013-04-13 08:37:00,
2013-04-13 03:42:00,31.8,28.1,29.74,West,270,4.3,7.1,86,0.00,CLR,,0.00,WeatherDisplay:10.37,2013-04-13 08:42:00,
2013-04-13 03:47:00,31.8,28.1,29.74,WNW,292,4.5,5.8,86,0.00,CLR,,0.00,WeatherDisplay:10.37,2013-04-13 08:47:00,
2013-04-13 03:53:00,31.6,27.9,29.74,West,270,3.8,4.6,86,0.00,CLR,,0.00,WeatherDisplay:10.37,2013-04-13 08:53:00,
2013-04-13 03:58:00,31.8,28.1,29.74,WNW,292,2.9,3.6,86,0.00,CLR,,0.00,WeatherDisplay:10.37,2013-04-13 08:58:00,
2013-04-13 04:04:00,31.6,27.9,29.74,SW,225,2.9,4.6,86,0.00,CLR,,0.00,WeatherDisplay:10.37,2013-04-13 09:04:00,
2013-04-13 04:09:00,31.6,27.9,29.74,WNW,292,3.6,4.6,86,0.00,CLR,,0.00,WeatherDisplay:10.37,2013-04-13 09:09:00,
2013-04-13 04:14:00,31.6,27.9,29.74,NNW,338,4.0,8.1,86,0.00,CLR,,0.00,WeatherDisplay:10.37,2013-04-13 09:14:00,
2013-04-13 04:19:00,31.5,28.0,29.74,NNW,338,2.4,5.8,87,0.00,CLR,,0.00,WeatherDisplay:10.37,2013-04-13 09:19:00,
2013-04-13 04:24:00,31.5,28.3,29.74,WNW,292,3.1,5.8,88,0.00,CLR,,0.00,WeatherDisplay:10.37,2013-04-13 09:24:00,
2013-04-13 04:29:00,31.5,28.3,29.74,WSW,248,3.8,4.6,88,0.00,CLR,,0.00,WeatherDisplay:10.37,2013-04-13 09:29:00,
2013-04-13 04:34:00,31.3,28.1,29.74,SSW,202,4.9,5.8,88,0.00,CLR,,0.00,WeatherDisplay:10.37,2013-04-13 09:34:00,
2013-04-13 04:40:00,31.3,28.4,29.75,WNW,283,6.0,9.0,89,0.00,CLR,,0.00,WeatherDisplay:10.37,2013-04-13 09:40:00,
2013-04-13 04:45:00,31.3,28.4,29.77,WNW,294,5.0,8.0,89,0.00,CLR,,0.00,WeatherDisplay:10.37,2013-04-13 09:45:00,
2013-04-13 04:50:00,31.3,27.9,29.77,WNW,299,7.0,13.0,87,0.00,CLR,,0.00,WeatherDisplay:10.37,2013-04-13 09:50:00,
2013-04-13 04:55:00,31.5,26.6,29.77,West,270,6.2,10.4,82,0.00,CLR,,0.00,WeatherDisplay:10.37,2013-04-13 09:55:00,
2013-04-13 05:00:00,31.5,26.6,29.77,WNW,292,7.1,9.2,82,0.00,CLR,,0.00,WeatherDisplay:10.37,2013-04-13 10:00:00,
2013-04-13 05:05:00,31.5,26.3,29.77,WSW,248,5.6,8.1,81,0.00,CLR,,0.00,WeatherDisplay:10.37,2013-04-13 10:05:00,
2013-04-13 05:10:00,31.3,25.5,29.77,WNW,292,4.5,4.6,79,0.00,CLR,,0.00,WeatherDisplay:10.37,2013-04-13 10:10:00,
2013-04-13 05:15:00,31.3,25.5,29.77,NW,315,4.9,7.6,79,0.00,CLR,,0.00,WeatherDisplay:10.37,2013-04-13 10:15:00,
2013-04-13 05:20:00,31.1,25.3,29.77,WNW,292,4.9,6.9,79,0.00,CLR,,0.00,WeatherDisplay:10.37,2013-04-13 10:20:00,
2013-04-13 05:25:00,30.9,25.5,29.77,WNW,292,6.2,8.1,80,0.00,CLR,,0.00,WeatherDisplay:10.37,2013-04-13 10:25:00,
2013-04-13 05:30:00,30.7,25.6,29.77,NW,315,5.4,6.9,81,0.00,CLR,,0.00,WeatherDisplay:10.37,2013-04-13 10:30:00,
2013-04-13 05:35:00,30.6,25.4,29.77,NW,315,4.3,6.9,81,0.00,CLR,,0.00,WeatherDisplay:10.37,2013-04-13 10:35:00,
2013-04-13 05:40:00,30.6,25.7,29.77,WNW,292,6.7,10.4,82,0.00,CLR,,0.00,WeatherDisplay:10.37,2013-04-13 10:40:00,
2013-04-13 05:45:00,30.4,25.5,29.77,NW,315,5.9,7.8,82,0.00,CLR,,0.00,WeatherDisplay:10.37,2013-04-13 10:45:00,
2013-04-13 05:52:00,30.2,24.2,29.77,NW,315,6.7,9.2,78,0.00,CLR,,0.00,WeatherDisplay:10.37,2013-04-13 10:52:00,
2013-04-13 05:57:00,30.2,24.2,29.77,WNW,292,3.1,3.5,78,0.00,CLR,,0.00,WeatherDisplay:10.37,2013-04-13 10:57:00,
2013-04-13 06:03:00,30.2,24.5,29.77,WNW,292,4.0,8.1,79,0.00,CLR,,0.00,WeatherDisplay:10.37,2013-04-13 11:03:00,
2013-04-13 06:08:00,30.2,24.8,29.77,NW,315,4.0,5.8,80,0.00,CLR,,0.00,WeatherDisplay:10.37,2013-04-13 11:08:00,
2013-04-13 06:13:00,30.2,24.8,29.77,WSW,248,4.5,5.8,80,0.00,CLR,,0.00,WeatherDisplay:10.37,2013-04-13 11:13:00,
2013-04-13 06:19:00,30.2,24.8,29.77,NNW,338,3.1,4.6,80,0.00,CLR,,0.00,WeatherDisplay:10.37,2013-04-13 11:19:00,
2013-04-13 06:24:00,30.2,24.8,29.77,WNW,292,5.9,8.1,80,0.00,CLR,,0.00,WeatherDisplay:10.37,2013-04-13 11:24:00,
2013-04-13 06:29:00,30.4,24.0,29.77,North,0,4.3,9.2,77,0.00,CLR,,0.00,WeatherDisplay:10.37,2013-04-13 11:29:00,
2013-04-13 06:34:00,30.2,23.9,29.77,NW,315,5.9,8.1,77,0.00,CLR,,0.00,WeatherDisplay:10.37,2013-04-13 11:34:00,
2013-04-13 06:39:00,30.2,23.2,29.77,WNW,292,4.5,4.6,75,0.00,CLR,,0.00,WeatherDisplay:10.37,2013-04-13 11:39:00,
2013-04-13 06:44:00,30.2,23.2,29.77,NNW,338,4.5,5.8,75,0.00,CLR,,0.00,WeatherDisplay:10.37,2013-04-13 11:44:00,
2013-04-13 06:49:00,30.4,22.8,29.77,NW,315,5.4,6.9,73,0.00,CLR,,0.00,WeatherDisplay:10.37,2013-04-13 11:49:00,
2013-04-13 06:54:00,30.4,23.1,29.77,NNW,338,6.4,8.1,74,0.00,CLR,,0.00,WeatherDisplay:10.37,2013-04-13 11:54:00,
2013-04-13 07:00:00,30.6,22.9,29.77,NW,306,5.0,7.0,73,0.00,CLR,,0.00,WeatherDisplay:10.37,2013-04-13 12:00:00,
2013-04-13 07:05:00,31.1,23.8,29.77,WNW,300,2.0,6.0,74,0.00,CLR,,0.00,WeatherDisplay:10.37,2013-04-13 12:05:00,
2013-04-13 07:10:00,31.3,23.3,29.80,WNW,292,3.6,5.8,72,0.00,CLR,,0.00,WeatherDisplay:10.37,2013-04-13 12:10:00,
2013-04-13 07:15:00,31.1,22.1,29.80,WSW,248,5.9,6.9,69,0.00,CLR,,0.00,WeatherDisplay:10.37,2013-04-13 12:15:00,
2013-04-13 07:20:00,31.1,22.1,29.80,WSW,248,6.7,8.7,69,0.00,CLR,,0.00,WeatherDisplay:10.37,2013-04-13 12:20:00,
2013-04-13 07:25:00,30.7,21.8,29.80,WNW,292,4.7,6.9,69,0.00,CLR,,0.00,WeatherDisplay:10.37,2013-04-13 12:25:00,
2013-04-13 07:30:00,30.6,21.9,29.80,WSW,248,4.7,6.2,70,0.00,CLR,,0.00,WeatherDisplay:10.37,2013-04-13 12:30:00,
2013-04-13 07:35:00,30.9,22.6,29.80,WSW,248,4.0,6.9,71,0.00,CLR,,0.00,WeatherDisplay:10.37,2013-04-13 12:35:00,
2013-04-13 07:40:00,32.7,24.0,29.80,West,270,3.8,5.8,70,0.00,CLR,,0.00,WeatherDisplay:10.37,2013-04-13 12:40:00,
2013-04-13 07:46:00,33.8,24.7,29.80,West,270,3.6,5.9,69,0.00,CLR,,0.00,WeatherDisplay:10.37,2013-04-13 12:46:00,
2013-04-13 07:52:00,35.8,24.8,29.80,WNW,292,4.5,7.1,64,0.00,CLR,,0.00,WeatherDisplay:10.37,2013-04-13 12:52:00,
2013-04-13 07:57:00,35.1,22.2,29.80,WNW,292,3.6,5.8,59,0.00,CLR,,0.00,WeatherDisplay:10.37,2013-04-13 12:57:00,
2013-04-13 08:02:00,33.3,21.6,29.80,NW,315,4.3,5.8,62,0.00,CLR,,0.00,WeatherDisplay:10.37,2013-04-13 13:02:00,
2013-04-13 08:07:00,32.9,22.0,29.80,WNW,292,4.7,6.9,64,0.00,CLR,,0.00,WeatherDisplay:10.37,2013-04-13 13:07:00,
2013-04-13 08:13:00,33.1,22.6,29.80,WNW,292,6.2,10.4,65,0.00,CLR,,0.00,WeatherDisplay:10.37,2013-04-13 13:13:00,
2013-04-13 08:18:00,33.1,22.9,29.80,WNW,292,3.8,5.4,66,0.00,CLR,,0.00,WeatherDisplay:10.37,2013-04-13 13:18:00,
2013-04-13 08:24:00,32.7,23.3,29.80,NW,315,2.2,5.9,68,0.00,CLR,,0.00,WeatherDisplay:10.37,2013-04-13 13:24:00,
2013-04-13 08:30:00,32.5,23.5,29.83,WNW,292,3.0,8.0,69,0.00,CLR,,0.00,WeatherDisplay:10.37,2013-04-13 13:30:00,
2013-04-13 08:35:00,32.2,23.5,29.83,WNW,287,5.0,6.0,70,0.00,CLR,,0.00,WeatherDisplay:10.37,2013-04-13 13:35:00,
2013-04-13 08:40:00,32.0,23.7,29.83,WNW,286,5.0,7.0,71,0.00,CLR,,0.00,WeatherDisplay:10.37,2013-04-13 13:40:00,
2013-04-13 08:45:00,32.2,24.2,29.83,WNW,292,5.4,8.1,72,0.00,CLR,,0.00,WeatherDisplay:10.37,2013-04-13 13:45:00,
2013-04-13 08:50:00,32.4,24.0,29.83,West,270,3.1,4.9,71,0.00,CLR,,0.00,WeatherDisplay:10.37,2013-04-13 13:50:00,
2013-04-13 08:55:00,32.5,24.5,29.83,WNW,292,2.6,4.7,72,0.00,CLR,,0.00,WeatherDisplay:10.37,2013-04-13 13:55:00,
2013-04-13 09:00:00,32.5,23.8,29.83,WNW,292,2.9,5.8,70,0.00,CLR,,0.00,WeatherDisplay:10.37,2013-04-13 14:00:00,
2013-04-13 09:05:00,32.5,23.5,29.83,NW,315,7.4,10.0,69,0.00,CLR,,0.00,WeatherDisplay:10.37,2013-04-13 14:05:00,
2013-04-13 09:10:00,32.7,23.7,29.83,NW,315,3.6,4.6,69,0.00,CLR,,0.00,WeatherDisplay:10.37,2013-04-13 14:10:00,
2013-04-13 09:15:00,33.4,23.7,29.83,NW,315,4.3,8.1,67,0.00,CLR,,0.00,WeatherDisplay:10.37,2013-04-13 14:15:00,
2013-04-13 09:20:00,33.8,22.5,29.83,NW,315,4.7,9.2,63,0.00,CLR,,0.00,WeatherDisplay:10.37,2013-04-13 14:20:00,
2013-04-13 09:25:00,35.6,23.1,29.83,WSW,248,6.7,8.1,60,0.00,CLR,,0.00,WeatherDisplay:10.37,2013-04-13 14:25:00,
2013-04-13 09:30:00,36.5,23.1,29.83,WNW,292,3.6,8.1,58,0.00,CLR,,0.00,WeatherDisplay:10.37,2013-04-13 14:30:00,
2013-04-13 09:36:00,36.7,21.6,29.83,WNW,292,5.4,5.8,54,0.00,CLR,,0.00,WeatherDisplay:10.37,2013-04-13 14:36:00,
2013-04-13 09:41:00,37.2,22.1,29.83,WNW,292,5.4,9.2,54,0.00,CLR,,0.00,WeatherDisplay:10.37,2013-04-13 14:41:00,
2013-04-13 09:46:00,36.1,20.6,29.83,West,270,5.6,6.9,53,0.00,CLR,,0.00,WeatherDisplay:10.37,2013-04-13 14:46:00,
2013-04-13 09:52:00,36.0,20.9,29.83,NNW,338,2.2,3.5,54,0.00,CLR,,0.00,WeatherDisplay:10.37,2013-04-13 14:52:00,
2013-04-13 09:57:00,35.6,21.0,29.83,West,270,3.8,3.8,55,0.00,CLR,,0.00,WeatherDisplay:10.37,2013-04-13 14:57:00,
2013-04-13 10:02:00,35.4,20.8,29.83,WNW,292,5.9,8.1,55,0.00,CLR,,0.00,WeatherDisplay:10.37,2013-04-13 15:02:00,
2013-04-13 10:08:00,36.3,21.7,29.83,West,270,3.6,6.9,55,0.00,CLR,,0.00,WeatherDisplay:10.37,2013-04-13 15:08:00,
2013-04-13 10:13:00,35.8,21.2,29.83,West,270,7.1,9.2,55,0.00,CLR,,0.00,WeatherDisplay:10.37,2013-04-13 15:13:00,
2013-04-13 10:18:00,35.4,20.8,29.83,WNW,292,9.4,10.4,55,0.00,CLR,,0.00,WeatherDisplay:10.37,2013-04-13 15:18:00,
2013-04-13 10:24:00,35.4,21.3,29.83,WNW,292,5.6,6.9,56,0.00,CLR,,0.00,WeatherDisplay:10.37,2013-04-13 15:24:00,
2013-04-13 10:29:00,35.2,21.1,29.83,WNW,292,6.4,12.7,56,0.00,CLR,,0.00,WeatherDisplay:10.37,2013-04-13 15:29:00,
2013-04-13 10:34:00,36.1,21.9,29.83,West,270,4.7,5.8,56,0.00,CLR,,0.00,WeatherDisplay:10.37,2013-04-13 15:34:00,
2013-04-13 10:39:00,36.9,22.6,29.83,West,270,3.8,5.8,56,0.00,CLR,,0.00,WeatherDisplay:10.37,2013-04-13 15:39:00,
2013-04-13 10:44:00,37.0,21.9,29.83,WNW,292,6.2,8.1,54,0.00,CLR,,0.00,WeatherDisplay:10.37,2013-04-13 15:44:00,
2013-04-13 10:49:00,37.6,21.5,29.83,WNW,292,5.6,8.1,52,0.00,CLR,,0.00,WeatherDisplay:10.37,2013-04-13 15:49:00,
2013-04-13 10:55:00,37.0,21.0,29.83,WNW,284,5.0,13.0,52,0.00,CLR,,0.00,WeatherDisplay:10.37,2013-04-13 15:55:00,
2013-04-13 11:00:00,37.0,21.5,29.83,West,270,3.8,4.6,53,0.00,CLR,,0.00,WeatherDisplay:10.37,2013-04-13 16:00:00,
2013-04-13 11:05:00,36.5,21.0,29.83,WNW,292,4.5,8.1,53,0.00,CLR,,0.00,WeatherDisplay:10.37,2013-04-13 16:05:00,
2013-04-13 11:10:00,35.4,20.4,29.80,West,270,5.4,8.1,54,0.00,CLR,,0.00,WeatherDisplay:10.37,2013-04-13 16:10:00,
2013-04-13 11:15:00,34.7,20.6,29.80,West,270,4.0,9.7,56,0.00,CLR,,0.00,WeatherDisplay:10.37,2013-04-13 16:15:00,
2013-04-13 11:21:00,34.3,22.3,29.80,West,270,4.0,5.8,61,0.00,CLR,,0.00,WeatherDisplay:10.37,2013-04-13 16:21:00,
2013-04-13 11:27:00,34.3,23.0,29.83,WSW,248,4.7,5.8,63,0.00,CLR,,0.00,WeatherDisplay:10.37,2013-04-13 16:27:00,
2013-04-13 11:32:00,34.5,24.0,29.83,West,270,3.3,4.6,65,0.00,CLR,,0.00,WeatherDisplay:10.37,2013-04-13 16:32:00,
2013-04-13 11:37:00,34.7,24.1,29.83,West,270,3.3,5.8,65,0.00,CLR,,0.00,WeatherDisplay:10.37,2013-04-13 16:37:00,
2013-04-13 11:42:00,35.1,24.8,29.83,WSW,248,1.4,2.9,66,0.00,CLR,,0.00,WeatherDisplay:10.37,2013-04-13 16:42:00,
2013-04-13 11:47:00,35.1,24.8,29.83,WNW,292,3.3,4.6,66,0.00,CLR,,0.00,WeatherDisplay:10.37,2013-04-13 16:47:00,
2013-04-13 11:52:00,34.9,24.3,29.83,WSW,248,2.9,5.8,65,0.00,CLR,,0.00,WeatherDisplay:10.37,2013-04-13 16:52:00,
2013-04-13 11:57:00,34.5,24.0,29.83,NNE,22,2.2,3.5,65,0.00,CLR,,0.00,WeatherDisplay:10.37,2013-04-13 16:57:00,
2013-04-13 12:02:00,34.5,24.7,29.83,WNW,292,6.0,9.0,67,0.00,CLR,,0.00,WeatherDisplay:10.37,2013-04-13 17:02:00,
2013-04-13 12:08:00,34.0,23.8,29.83,WNW,292,3.6,8.1,66,0.00,CLR,,0.00,WeatherDisplay:10.37,2013-04-13 17:08:00,
2013-04-13 12:13:00,34.0,24.2,29.83,WNW,292,5.4,8.1,67,0.00,CLR,,0.00,WeatherDisplay:10.37,2013-04-13 17:13:00,
2013-04-13 12:18:00,34.0,23.8,29.83,West,270,6.7,10.4,66,0.00,CLR,,0.00,WeatherDisplay:10.37,2013-04-13 17:18:00,
2013-04-13 12:24:00,34.3,23.8,29.83,WSW,248,5.6,8.1,65,0.00,CLR,,0.00,WeatherDisplay:10.37,2013-04-13 17:24:00,
2013-04-13 12:29:00,34.9,23.6,29.83,West,270,4.7,9.7,63,0.00,CLR,,0.00,WeatherDisplay:10.37,2013-04-13 17:29:00,
2013-04-13 12:34:00,35.2,22.3,29.83,WNW,292,5.4,9.2,59,0.00,CLR,,0.00,WeatherDisplay:10.37,2013-04-13 17:34:00,
2013-04-13 12:40:00,35.8,22.0,29.86,WSW,248,4.5,10.4,57,0.00,CLR,,0.00,WeatherDisplay:10.37,2013-04-13 17:40:00,
2013-04-13 12:45:00,36.3,22.5,29.86,SW,225,3.3,5.8,57,0.00,CLR,,0.00,WeatherDisplay:10.37,2013-04-13 17:45:00,
2013-04-13 12:50:00,36.5,21.0,29.86,WNW,292,7.1,8.1,53,0.00,CLR,,0.00,WeatherDisplay:10.37,2013-04-13 17:50:00,
2013-04-13 12:56:00,36.1,20.2,29.83,West,270,5.4,8.1,52,0.00,CLR,,0.00,WeatherDisplay:10.37,2013-04-13 17:56:00,
2013-04-13 13:01:00,36.1,20.2,29.83,SW,225,4.7,8.1,52,0.00,CLR,,0.00,WeatherDisplay:10.37,2013-04-13 18:01:00,
2013-04-13 13:07:00,36.0,20.0,29.83,West,270,5.6,16.1,52,0.00,CLR,,0.00,WeatherDisplay:10.37,2013-04-13 18:07:00,
2013-04-13 13:13:00,35.4,20.0,29.86,WSW,248,6.2,9.2,53,0.00,CLR,,0.00,WeatherDisplay:10.37,2013-04-13 18:13:00,
2013-04-13 13:19:00,36.1,21.1,29.86,South,180,3.6,5.6,54,0.00,CLR,,0.00,WeatherDisplay:10.37,2013-04-13 18:19:00,
2013-04-13 13:25:00,36.3,20.4,29.85,West,273,7.0,14.0,52,0.00,CLR,,0.00,WeatherDisplay:10.37,2013-04-13 18:25:00,
2013-04-13 13:27:00,36.3,20.4,29.83,WNW,292,6.2,11.5,52,0.00,CLR,,0.00,WeatherDisplay:10.37,2013-04-13 18:27:00,
2013-04-13 13:32:00,35.8,19.9,29.83,SSW,202,9.4,12.5,52,0.00,CLR,,0.00,WeatherDisplay:10.37,2013-04-13 18:32:00,
2013-04-13 13:37:00,35.2,20.2,29.83,SSE,158,5.9,11.5,54,0.00,CLR,,0.00,WeatherDisplay:10.37,2013-04-13 18:37:00,
2013-04-13 13:42:00,36.1,21.5,29.86,WSW,248,5.4,8.1,55,0.00,CLR,,0.00,WeatherDisplay:10.37,2013-04-13 18:42:00,
2013-04-13 13:48:00,37.0,21.5,29.86,NW,315,4.7,9.2,53,0.00,CLR,,0.00,WeatherDisplay:10.37,2013-04-13 18:48:00,
2013-04-13 13:53:00,37.2,20.7,29.86,NNW,338,8.5,9.2,51,0.00,CLR,,0.00,WeatherDisplay:10.37,2013-04-13 18:53:00,
2013-04-13 13:58:00,37.0,21.5,29.86,NNE,22,3.3,8.1,53,0.00,CLR,,0.00,WeatherDisplay:10.37,2013-04-13 18:58:00,
2013-04-13 14:03:00,36.7,21.1,29.86,WSW,248,4.3,8.1,53,0.00,CLR,,0.00,WeatherDisplay:10.37,2013-04-13 19:03:00,
2013-04-13 14:08:00,36.9,21.3,29.86,South,180,4.9,8.1,53,0.00,CLR,,0.00,WeatherDisplay:10.37,2013-04-13 19:08:00,
2013-04-13 14:13:00,36.5,20.5,29.86,NW,315,6.0,6.9,52,0.00,CLR,,0.00,WeatherDisplay:10.37,2013-04-13 19:13:00,
2013-04-13 14:18:00,36.3,20.8,29.86,WNW,292,5.4,9.2,53,0.00,CLR,,0.00,WeatherDisplay:10.37,2013-04-13 19:18:00,
2013-04-13 14:23:00,37.4,21.8,29.86,WSW,248,3.8,6.9,53,0.00,CLR,,0.00,WeatherDisplay:10.37,2013-04-13 19:23:00,
2013-04-13 14:28:00,39.2,22.6,29.86,WNW,292,6.7,10.4,51,0.00,CLR,,0.00,WeatherDisplay:10.37,2013-04-13 19:28:00,
2013-04-13 14:33:00,37.6,21.1,29.86,WSW,248,4.9,6.9,51,0.00,CLR,,0.00,WeatherDisplay:10.37,2013-04-13 19:33:00,
2013-04-13 14:38:00,37.0,21.0,29.86,West,270,2.9,8.1,52,0.00,CLR,,0.00,WeatherDisplay:10.37,2013-04-13 19:38:00,
2013-04-13 14:43:00,38.5,22.4,29.86,SW,225,6.4,10.4,52,0.00,CLR,,0.00,WeatherDisplay:10.37,2013-04-13 19:43:00,
2013-04-13 14:48:00,39.4,22.3,29.86,WNW,292,4.7,8.1,50,0.00,CLR,,0.00,WeatherDisplay:10.37,2013-04-13 19:48:00,
2013-04-13 14:53:00,38.8,21.8,29.86,SW,225,4.9,9.8,50,0.00,CLR,,0.00,WeatherDisplay:10.37,2013-04-13 19:53:00,
2013-04-13 14:58:00,37.9,20.5,29.86,WSW,248,6.4,11.5,49,0.02,RA,,0.02,WeatherDisplay:10.37,2013-04-13 19:58:00,
2013-04-13 15:03:00,38.1,19.6,29.86,SW,225,7.6,12.7,47,0.02,RA,,0.02,WeatherDisplay:10.37,2013-04-13 20:03:00,
2013-04-13 15:08:00,37.6,19.1,29.86,NW,315,8.5,12.7,47,0.02,CLR,,0.02,WeatherDisplay:10.37,2013-04-13 20:08:00,
2013-04-13 15:13:00,37.4,20.0,29.86,West,270,4.0,8.1,49,0.02,CLR,,0.02,WeatherDisplay:10.37,2013-04-13 20:13:00,
2013-04-13 15:18:00,37.6,20.6,29.86,West,270,6.7,10.4,50,0.02,CLR,,0.02,WeatherDisplay:10.37,2013-04-13 20:18:00,
2013-04-13 15:23:00,39.4,21.3,29.86,WSW,248,4.7,7.8,48,0.02,CLR,,0.02,WeatherDisplay:10.37,2013-04-13 20:23:00,
2013-04-13 15:28:00,40.8,21.6,29.86,West,270,6.2,8.1,46,0.05,RA,,0.05,WeatherDisplay:10.37,2013-04-13 20:28:00,
2013-04-13 15:33:00,40.6,19.9,29.86,WNW,292,9.4,11.5,43,0.05,RA,,0.05,WeatherDisplay:10.37,2013-04-13 20:33:00,
2013-04-13 15:38:00,39.4,18.7,29.86,WNW,292,6.4,10.4,43,0.05,CLR,,0.05,WeatherDisplay:10.37,2013-04-13 20:38:00,
2013-04-13 15:43:00,38.3,17.7,29.83,WSW,248,9.2,13.8,43,0.05,CLR,,0.05,WeatherDisplay:10.37,2013-04-13 20:43:00,
2013-04-13 15:48:00,37.9,17.9,29.83,West,270,3.8,8.1,44,0.05,CLR,,0.05,WeatherDisplay:10.37,2013-04-13 20:48:00,
2013-04-13 15:53:00,37.4,17.4,29.83,WSW,248,6.0,10.4,44,0.05,CLR,,0.05,WeatherDisplay:10.37,2013-04-13 20:53:00,
2013-04-13 15:58:00,37.9,19.0,29.83,North,0,2.2,3.5,46,0.03,CLR,,0.05,WeatherDisplay:10.37,2013-04-13 20:58:00,
2013-04-13 16:03:00,38.1,20.1,29.83,SSW,202,6.4,10.4,48,0.03,CLR,,0.06,WeatherDisplay:10.37,2013-04-13 21:03:00,
2013-04-13 16:08:00,37.6,19.6,29.83,WNW,292,3.1,5.6,48,0.05,RA,,0.06,WeatherDisplay:10.37,2013-04-13 21:08:00,
2013-04-13 16:13:00,37.0,19.6,29.86,NW,315,6.2,8.1,49,0.05,RA,,0.06,WeatherDisplay:10.37,2013-04-13 21:13:00,
2013-04-13 16:18:00,37.0,19.6,29.86,West,270,3.1,5.8,49,0.05,CLR,,0.06,WeatherDisplay:10.37,2013-04-13 21:18:00,
2013-04-13 16:23:00,37.6,20.6,29.86,WSW,248,3.6,5.8,50,0.05,CLR,,0.06,WeatherDisplay:10.37,2013-04-13 21:23:00,
2013-04-13 16:28:00,37.4,20.0,29.86,SSE,158,5.9,9.2,49,0.02,CLR,,0.06,WeatherDisplay:10.37,2013-04-13 21:28:00,
2013-04-13 16:33:00,37.0,20.1,29.86,WSW,248,4.9,8.1,50,0.02,CLR,,0.06,WeatherDisplay:10.37,2013-04-13 21:33:00,
2013-04-13 16:38:00,36.9,19.9,29.86,West,270,4.3,6.9,50,0.02,CLR,,0.06,WeatherDisplay:10.37,2013-04-13 21:38:00,
2013-04-13 16:43:00,36.7,20.2,29.86,SE,135,4.0,5.8,51,0.02,CLR,,0.06,WeatherDisplay:10.37,2013-04-13 21:43:00,
2013-04-13 16:48:00,36.7,20.2,29.86,West,270,6.2,10.4,51,0.02,CLR,,0.06,WeatherDisplay:10.37,2013-04-13 21:48:00,
2013-04-13 16:53:00,37.4,20.9,29.86,WNW,292,4.7,6.9,51,0.02,CLR,,0.06,WeatherDisplay:10.37,2013-04-13 21:53:00,
2013-04-13 16:58:00,37.6,20.6,29.86,SSW,202,4.3,5.8,50,0.02,CLR,,0.06,WeatherDisplay:10.37,2013-04-13 21:58:00,
2013-04-13 17:03:00,37.2,19.8,29.86,West,270,6.0,9.2,49,0.02,CLR,,0.06,WeatherDisplay:10.37,2013-04-13 22:03:00,
2013-04-13 17:08:00,37.4,20.0,29.86,NW,315,7.4,11.5,49,0.00,CLR,,0.06,WeatherDisplay:10.37,2013-04-13 22:08:00,
2013-04-13 17:13:00,37.0,18.7,29.89,West,270,7.1,8.1,47,0.00,CLR,,0.06,WeatherDisplay:10.37,2013-04-13 22:13:00,
2013-04-13 17:18:00,37.4,19.5,29.89,West,270,3.6,5.6,48,0.00,CLR,,0.06,WeatherDisplay:10.37,2013-04-13 22:18:00,
2013-04-13 17:23:00,36.9,18.0,29.89,NW,315,7.4,10.4,46,0.00,CLR,,0.06,WeatherDisplay:10.37,2013-04-13 22:23:00,
2013-04-13 17:28:00,37.2,19.3,29.89,WSW,248,5.9,8.1,48,0.00,CLR,,0.06,WeatherDisplay:10.37,2013-04-13 22:28:00,
2013-04-13 17:33:00,36.9,19.5,29.89,NW,315,4.9,6.9,49,0.00,CLR,,0.06,WeatherDisplay:10.37,2013-04-13 22:33:00,
2013-04-13 17:38:00,37.0,19.6,29.89,WNW,292,4.3,5.9,49,0.00,CLR,,0.06,WeatherDisplay:10.37,2013-04-13 22:38:00,
2013-04-13 17:43:00,37.0,19.1,29.89,NW,315,3.6,4.6,48,0.00,CLR,,0.06,WeatherDisplay:10.37,2013-04-13 22:43:00,
2013-04-13 17:48:00,36.5,18.6,29.89,NW,315,6.9,10.4,48,0.02,RA,,0.08,WeatherDisplay:10.37,2013-04-13 22:48:00,
2013-04-13 17:53:00,36.7,19.3,29.89,West,270,3.8,5.8,49,0.02,RA,,0.08,WeatherDisplay:10.37,2013-04-13 22:53:00,
2013-04-13 17:58:00,36.9,19.9,29.89,WNW,292,3.8,6.0,50,0.02,CLR,,0.08,WeatherDisplay:10.37,2013-04-13 22:58:00,
2013-04-13 18:03:00,36.9,19.5,29.89,West,270,4.5,5.8,49,0.02,CLR,,0.08,WeatherDisplay:10.37,2013-04-13 23:03:00,
2013-04-13 18:08:00,36.7,19.8,29.89,WSW,248,2.4,6.4,50,0.02,CLR,,0.08,WeatherDisplay:10.37,2013-04-13 23:08:00,
2013-04-13 18:13:00,36.7,19.8,29.89,NW,315,4.9,5.8,50,0.02,CLR,,0.08,WeatherDisplay:10.37,2013-04-13 23:13:00,
2013-04-13 18:18:00,36.7,19.8,29.89,WNW,292,4.3,6.9,50,0.02,CLR,,0.08,WeatherDisplay:10.37,2013-04-13 23:18:00,
2013-04-13 18:23:00,36.3,19.0,29.89,West,270,3.6,5.8,49,0.02,CLR,,0.08,WeatherDisplay:10.37,2013-04-13 23:23:00,
2013-04-13 18:28:00,36.3,19.4,29.89,WNW,292,2.9,6.9,50,0.02,CLR,,0.08,WeatherDisplay:10.37,2013-04-13 23:28:00,
2013-04-13 18:33:00,36.1,19.3,29.89,WSW,248,2.6,5.8,50,0.02,CLR,,0.08,WeatherDisplay:10.37,2013-04-13 23:33:00,
2013-04-13 18:38:00,36.0,19.1,29.89,West,270,3.8,4.6,50,0.02,CLR,,0.08,WeatherDisplay:10.37,2013-04-13 23:38:00,
2013-04-13 18:43:00,35.8,18.9,29.89,WNW,292,4.3,5.8,50,0.02,CLR,,0.08,WeatherDisplay:10.37,2013-04-13 23:43:00,
2013-04-13 18:48:00,35.6,18.8,29.89,West,270,3.1,5.8,50,0.00,CLR,,0.08,WeatherDisplay:10.37,2013-04-13 23:48:00,
2013-04-13 18:53:00,35.6,19.2,29.89,West,270,4.0,4.6,51,0.00,CLR,,0.08,WeatherDisplay:10.37,2013-04-13 23:53:00,
2013-04-13 18:58:00,35.4,19.5,29.92,West,270,3.8,3.8,52,0.00,CLR,,0.08,WeatherDisplay:10.37,2013-04-13 23:58:00,
2013-04-13 19:04:00,35.4,19.5,29.92,NW,315,2.9,4.6,52,0.00,CLR,,0.08,WeatherDisplay:10.37,2013-04-14 00:04:00,
2013-04-13 19:09:00,35.4,19.5,29.92,WNW,292,1.6,4.6,52,0.00,CLR,,0.08,WeatherDisplay:10.37,2013-04-14 00:09:00,
2013-04-13 19:14:00,35.2,19.4,29.89,West,270,3.8,3.8,52,0.00,CLR,,0.08,WeatherDisplay:10.37,2013-04-14 00:14:00,
2013-04-13 19:19:00,35.1,19.2,29.89,West,270,2.9,4.3,52,0.00,CLR,,0.08,WeatherDisplay:10.37,2013-04-14 00:19:00,
2013-04-13 19:24:00,35.1,19.6,29.89,WNW,292,0.9,2.3,53,0.00,CLR,,0.08,WeatherDisplay:10.37,2013-04-14 00:24:00,
2013-04-13 19:29:00,35.1,19.6,29.86,WNW,292,2.6,3.5,53,0.00,CLR,,0.08,WeatherDisplay:10.37,2013-04-14 00:29:00,
2013-04-13 19:34:00,34.9,19.5,29.86,WNW,292,1.6,3.5,53,0.00,CLR,,0.08,WeatherDisplay:10.37,2013-04-14 00:34:00,
2013-04-13 19:39:00,34.9,19.9,29.86,WSW,248,1.1,4.9,54,0.00,CLR,,0.08,WeatherDisplay:10.37,2013-04-14 00:39:00,
2013-04-13 19:44:00,34.7,19.7,29.89,WSW,248,0.0,2.3,54,0.00,CLR,,0.08,WeatherDisplay:10.37,2013-04-14 00:44:00,
2013-04-13 19:49:00,34.7,19.7,29.89,SW,225,0.9,2.3,54,0.00,CLR,,0.08,WeatherDisplay:10.37,2013-04-14 00:49:00,
2013-04-13 19:54:00,34.5,19.6,29.89,West,270,0.0,1.6,54,0.00,CLR,,0.08,WeatherDisplay:10.37,2013-04-14 00:54:00,
2013-04-13 19:59:00,34.5,19.6,29.89,West,270,0.9,3.5,54,0.00,CLR,,0.08,WeatherDisplay:10.37,2013-04-14 00:59:00,
2013-04-13 20:04:00,34.5,19.6,29.89,West,270,0.0,1.1,54,0.00,CLR,,0.08,WeatherDisplay:10.37,2013-04-14 01:04:00,
2013-04-13 20:09:00,34.5,19.6,29.89,West,270,2.4,3.5,54,0.00,CLR,,0.08,WeatherDisplay:10.37,2013-04-14 01:09:00,
2013-04-13 20:14:00,34.5,19.6,29.89,West,270,0.0,0.0,54,0.00,CLR,,0.08,WeatherDisplay:10.37,2013-04-14 01:14:00,
2013-04-13 20:19:00,34.3,19.4,29.89,West,270,0.9,2.2,54,0.00,CLR,,0.08,WeatherDisplay:10.37,2013-04-14 01:19:00,
2013-04-13 20:24:00,34.3,19.4,29.89,WNW,292,0.0,0.0,54,0.00,CLR,,0.08,WeatherDisplay:10.37,2013-04-14 01:24:00,
2013-04-13 20:29:00,34.3,19.8,29.89,West,270,0.0,0.0,55,0.00,CLR,,0.08,WeatherDisplay:10.37,2013-04-14 01:29:00,
2013-04-13 20:34:00,34.3,19.4,29.89,West,270,2.6,4.6,54,0.00,CLR,,0.08,WeatherDisplay:10.37,2013-04-14 01:34:00,
2013-04-13 20:39:00,34.3,19.8,29.89,SW,225,0.0,0.0,55,0.00,CLR,,0.08,WeatherDisplay:10.37,2013-04-14 01:39:00,
2013-04-13 20:44:00,34.3,19.8,29.89,WSW,248,0.0,2.6,55,0.00,CLR,,0.08,WeatherDisplay:10.37,2013-04-14 01:44:00,
2013-04-13 20:49:00,34.3,19.8,29.89,WNW,292,2.2,3.5,55,0.00,CLR,,0.08,WeatherDisplay:10.37,2013-04-14 01:49:00,
2013-04-13 20:54:00,34.3,19.8,29.89,West,270,0.0,1.1,55,0.00,CLR,,0.08,WeatherDisplay:10.37,2013-04-14 01:54:00,
2013-04-13 20:59:00,34.2,19.7,29.89,WNW,292,1.6,2.3,55,0.00,CLR,,0.08,WeatherDisplay:10.37,2013-04-14 01:59:00,
2013-04-13 21:04:00,34.0,19.5,29.89,NW,315,0.0,1.1,55,0.00,CLR,,0.08,WeatherDisplay:10.37,2013-04-14 02:04:00,
2013-04-13 21:09:00,34.0,19.9,29.89,NW,315,0.0,0.0,56,0.00,CLR,,0.08,WeatherDisplay:10.37,2013-04-14 02:09:00,
2013-04-13 21:14:00,34.0,19.9,29.89,NW,315,0.9,2.3,56,0.00,CLR,,0.08,WeatherDisplay:10.37,2013-04-14 02:14:00,
2013-04-13 21:19:00,33.8,19.7,29.89,North,0,1.1,2.3,56,0.00,CLR,,0.08,WeatherDisplay:10.37,2013-04-14 02:19:00,
2013-04-13 21:24:00,33.8,19.7,29.89,NNW,338,1.4,1.4,56,0.00,CLR,,0.08,WeatherDisplay:10.37,2013-04-14 02:24:00,
2013-04-13 21:29:00,33.8,20.2,29.92,North,0,0.0,2.2,57,0.00,CLR,,0.08,WeatherDisplay:10.37,2013-04-14 02:29:00,
2013-04-13 21:34:00,33.8,20.6,29.92,NNW,338,2.2,2.3,58,0.00,CLR,,0.08,WeatherDisplay:10.37,2013-04-14 02:34:00,
2013-04-13 21:39:00,33.6,20.8,29.92,NW,315,1.6,2.3,59,0.00,CLR,,0.08,WeatherDisplay:10.37,2013-04-14 02:39:00,
2013-04-13 21:44:00,33.3,20.1,29.92,NW,315,0.0,0.0,58,0.00,CLR,,0.08,WeatherDisplay:10.37,2013-04-14 02:44:00,
2013-04-13 21:49:00,33.1,20.3,29.92,North,0,0.0,0.0,59,0.00,CLR,,0.08,WeatherDisplay:10.37,2013-04-14 02:49:00,
2013-04-13 21:54:00,32.9,20.1,29.92,NNW,338,0.0,0.0,59,0.00,CLR,,0.08,WeatherDisplay:10.37,2013-04-14 02:54:00,
2013-04-13 21:59:00,32.5,19.8,29.92,NW,315,1.6,2.3,59,0.00,CLR,,0.08,WeatherDisplay:10.37,2013-04-14 02:59:00,
2013-04-13 22:04:00,32.4,19.6,29.92,NW,315,1.4,2.3,59,0.00,CLR,,0.08,WeatherDisplay:10.37,2013-04-14 03:04:00,
2013-04-13 22:09:00,32.2,19.8,29.92,WSW,248,1.1,2.3,60,0.00,CLR,,0.08,WeatherDisplay:10.37,2013-04-14 03:09:00,
2013-04-13 22:14:00,31.8,19.5,29.92,WSW,248,0.0,0.0,60,0.00,CLR,,0.08,WeatherDisplay:10.37,2013-04-14 03:14:00,
2013-04-13 22:19:00,31.6,19.3,29.92,West,270,1.6,2.3,60,0.00,CLR,,0.08,WeatherDisplay:10.37,2013-04-14 03:19:00,
2013-04-13 22:24:00,31.3,19.4,29.95,West,270,0.0,0.0,61,0.00,CLR,,0.08,WeatherDisplay:10.37,2013-04-14 03:24:00,
2013-04-13 22:29:00,30.9,19.0,29.95,West,270,0.0,0.0,61,0.00,CLR,,0.08,WeatherDisplay:10.37,2013-04-14 03:29:00,
2013-04-13 22:34:00,30.2,18.7,29.95,West,270,0.0,0.0,62,0.00,CLR,,0.08,WeatherDisplay:10.37,2013-04-14 03:34:00,
2013-04-13 22:39:00,29.8,18.8,29.95,West,270,0.0,0.0,63,0.00,CLR,,0.08,WeatherDisplay:10.37,2013-04-14 03:39:00,
2013-04-13 22:44:00,29.5,18.8,29.95,West,270,0.0,0.0,64,0.00,CLR,,0.08,WeatherDisplay:10.37,2013-04-14 03:44:00,
2013-04-13 22:49:00,29.1,18.8,29.95,West,270,0.0,0.0,65,0.00,CLR,,0.08,WeatherDisplay:10.37,2013-04-14 03:49:00,
2013-04-13 22:54:00,29.1,18.8,29.95,West,270,0.0,0.0,65,0.00,CLR,,0.08,WeatherDisplay:10.37,2013-04-14 03:54:00,
2013-04-13 22:59:00,28.9,19.3,29.95,West,270,0.0,0.0,67,0.00,CLR,,0.08,WeatherDisplay:10.37,2013-04-14 03:59:00,
2013-04-13 23:00:00,29.0,19.4,29.95,West,270,0.0,1.0,67,0.00,CLR,,0.09,WeatherDisplay:10.37,2013-04-14 04:00:00,
2013-04-13 23:01:00,28.9,19.3,29.95,West,270,0.0,0.0,67,0.00,CLR,,0.08,WeatherDisplay:10.37,2013-04-14 04:01:00,
2013-04-13 23:06:00,28.9,19.7,29.95,West,270,1.1,2.3,68,0.00,CLR,,0.08,WeatherDisplay:10.37,2013-04-14 04:06:00,
2013-04-13 23:11:00,28.6,20.4,29.95,NNE,22,0.0,0.0,71,0.00,CLR,,0.08,WeatherDisplay:10.37,2013-04-14 04:11:00,
2013-04-13 23:16:00,28.4,20.5,29.95,NNE,22,0.0,0.0,72,0.00,CLR,,0.08,WeatherDisplay:10.37,2013-04-14 04:16:00,
2013-04-13 23:21:00,28.4,21.2,29.95,NNE,22,0.0,0.0,74,0.00,CLR,,0.08,WeatherDisplay:10.37,2013-04-14 04:21:00,
2013-04-13 23:26:00,28.0,20.8,29.92,North,0,1.4,2.3,74,0.00,CLR,,0.08,WeatherDisplay:10.37,2013-04-14 04:26:00,
2013-04-13 23:31:00,28.0,20.8,29.92,North,0,0.0,0.0,74,0.00,CLR,,0.08,WeatherDisplay:10.37,2013-04-14 04:31:00,
2013-04-13 23:36:00,28.0,20.8,29.92,NNW,338,2.9,3.3,74,0.00,CLR,,0.08,WeatherDisplay:10.37,2013-04-14 04:36:00,
2013-04-13 23:41:00,28.4,22.1,29.92,NW,315,2.6,3.5,77,0.00,CLR,,0.08,WeatherDisplay:10.37,2013-04-14 04:41:00,
2013-04-13 23:46:00,28.2,21.9,29.92,NW,315,0.0,0.0,77,0.00,CLR,,0.08,WeatherDisplay:10.37,2013-04-14 04:46:00,
2013-04-13 23:51:00,27.9,21.6,29.92,NW,315,0.0,0.0,77,0.00,CLR,,0.08,WeatherDisplay:10.37,2013-04-14 04:51:00,
2013-04-13 23:56:00,27.5,21.2,29.95,NW,315,0.0,0.0,77,0.00,CLR,,0.08,WeatherDisplay:10.37,2013-04-14 04:56:00,